Weather History for Sparta, IL

Change the Weather History Date:

Wednesday, February 6, 2013

  Actual Average (KBLV) Record (KBLV)
Temperature  
Mean Temperature 38 °F -  
Max Temperature 51 °F 39 °F 57 °F (1950)
Min Temperature 26 °F 21 °F -8 °F (1979)
Degree Days  
Heating Degree Days 26    
Moisture  
Dew Point 32 °F    
Average Humidity 78    
Maximum Humidity 100    
Minimum Humidity 32    
Precipitation  
Precipitation 0.00 in - - ()
Sea Level Pressure  
Sea Level Pressure 30.17 in    
Wind  
Wind Speed 5 mph (ESE)    
Max Wind Speed 12 mph    
Max Gust Speed -    
Visibility 10 miles    
Events      
Averages and records for this station are not official NWS values.
T = Trace of Precipitation, MM = Missing Value Source: NWS Daily Summary

Daily Weather History Graph

Daily Weather History Graph

Search for Another Location

Airport:

Trip Planner

Search our weather history database for the weather conditions in past years. The results will help you decide how hot, cold, wet, or windy it might be!

Date:

Astronomy

Feb. 06, 2013 Rise Set
Actual Time 6:58 AM CST 5:27 PM CST
Civil Twilight 6:31 AM CST 5:55 PM CST
Nautical Twilight 5:59 AM CST 6:26 PM CST
Astronomical Twilight 5:29 AM CST 6:57 PM CST
Moon 3:40 AM CST (2/6) 1:47 PM CST (2/6)
Length of Visible Light 11h 24m
Length of Day
10h 29m
Waning Crescent, 17% of the Moon is Illuminated
Feb 6
Waning Crescent
Feb 10
New
Feb 17
First Quarter
Feb 25
Full
Mar 4
Last Quarter

Hourly Weather History & Observations

Time (CST) Temp. Windchill Dew Point Humidity Pressure Visibility Wind Dir Wind Speed Gust Speed Precip Events Conditions
12:15 AM 37.4 °F 32.1 °F 33.8 °F 87% 30.14 in 10.0 mi North 6.9 mph - N/A   Clear
12:35 AM 37.4 °F 32.8 °F 33.8 °F 87% 30.15 in 10.0 mi North 5.8 mph - N/A   Clear
12:55 AM 35.6 °F 32.8 °F 33.8 °F 93% 30.15 in 10.0 mi North 3.5 mph - N/A   Clear
1:15 AM 33.8 °F 28.6 °F 33.8 °F 100% 30.15 in 10.0 mi NNE 5.8 mph - N/A   Clear
1:35 AM 33.8 °F 28.6 °F 33.8 °F 100% 30.15 in 10.0 mi NNE 5.8 mph - N/A   Clear
1:55 AM 33.8 °F 29.6 °F 33.8 °F 100% 30.16 in 10.0 mi North 4.6 mph - N/A   Clear
2:15 AM 33.8 °F 29.6 °F 33.8 °F 100% 30.16 in 10.0 mi NNE 4.6 mph - N/A   Clear
2:35 AM 32.0 °F 28.7 °F 32.0 °F 100% 30.17 in 10.0 mi NNE 3.5 mph - N/A   Clear
2:55 AM 32.0 °F 28.7 °F 32.0 °F 100% 30.16 in 10.0 mi NE 3.5 mph - N/A   Clear
3:15 AM 30.2 °F 26.7 °F 30.2 °F 100% 30.17 in 10.0 mi ENE 3.5 mph - N/A   Clear
3:35 AM 30.2 °F - 30.2 °F 100% 30.17 in 10.0 mi Calm Calm - N/A   Clear
3:55 AM 32.0 °F - 32.0 °F 100% 30.18 in 10.0 mi Calm Calm - N/A   Clear
4:15 AM 30.2 °F - 30.2 °F 100% 30.18 in 10.0 mi Calm Calm - N/A   Clear
4:35 AM 30.2 °F - 30.2 °F 100% 30.19 in 10.0 mi Calm Calm - N/A   Clear
4:55 AM 30.2 °F - 30.2 °F 100% 30.19 in 10.0 mi Calm Calm - N/A   Clear
5:15 AM 28.4 °F - 28.4 °F 100% 30.20 in 7.0 mi Calm Calm - N/A   Clear
5:35 AM 28.4 °F - 28.4 °F 100% 30.20 in 10.0 mi Calm Calm - N/A   Clear
5:55 AM 28.4 °F - 28.4 °F 100% 30.20 in 7.0 mi Calm Calm - N/A   Clear
6:15 AM 28.4 °F - 28.4 °F 100% 30.20 in 7.0 mi Calm Calm - N/A   Clear
6:35 AM 28.4 °F - 28.4 °F 100% 30.20 in 5.0 mi Calm Calm - N/A   Clear
6:55 AM 26.6 °F - 26.6 °F 100% 30.20 in 4.0 mi Calm Calm - N/A   Clear
7:15 AM 28.4 °F - 28.4 °F 100% 30.20 in 4.0 mi Calm Calm - N/A   Clear
7:55 AM 30.2 °F - 30.2 °F 100% 30.22 in 10.0 mi Calm Calm - N/A   Clear
8:15 AM 33.8 °F 29.6 °F 33.8 °F 100% 30.23 in 10.0 mi SSE 4.6 mph - N/A   Clear
8:35 AM 35.6 °F 31.7 °F 35.6 °F 100% 30.24 in 10.0 mi SSE 4.6 mph - N/A   Clear
8:55 AM 35.6 °F 31.7 °F 35.6 °F 100% 30.24 in 10.0 mi SSE 4.6 mph - N/A   Clear
9:15 AM 37.4 °F 30.8 °F 35.6 °F 93% 30.25 in 10.0 mi SSE 9.2 mph - N/A   Clear
9:35 AM 37.4 °F 31.4 °F 35.6 °F 93% 30.25 in 10.0 mi SSE 8.1 mph - N/A   Clear
9:55 AM 39.2 °F 34.2 °F 35.6 °F 87% 30.25 in 10.0 mi South 6.9 mph - N/A   Clear
10:15 AM 39.2 °F 35.0 °F 35.6 °F 87% 30.26 in 10.0 mi SE 5.8 mph - N/A   Clear
10:35 AM 41.0 °F 36.4 °F 35.6 °F 81% 30.26 in 10.0 mi SSE 6.9 mph - N/A   Clear
10:55 AM 42.8 °F 40.1 °F 33.8 °F 70% 30.26 in 10.0 mi South 4.6 mph - N/A   Clear
11:15 AM 44.6 °F 42.2 °F 33.8 °F 66% 30.25 in 10.0 mi SSE 4.6 mph - N/A   Clear
11:35 AM 44.6 °F 42.2 °F 32.0 °F 61% 30.24 in 10.0 mi SE 4.6 mph - N/A   Clear
11:55 AM 44.6 °F 42.2 °F 30.2 °F 57% 30.24 in 10.0 mi SE 4.6 mph - N/A   Clear
12:15 PM 46.4 °F 44.3 °F 28.4 °F 50% 30.22 in 10.0 mi ESE 4.6 mph - N/A   Clear
12:35 PM 48.2 °F - 30.2 °F 50% 30.21 in 10.0 mi East 5.8 mph - N/A   Clear
12:55 PM 48.2 °F - 28.4 °F 46% 30.19 in 10.0 mi ESE 3.5 mph - N/A   Clear
1:15 PM 48.2 °F - 26.6 °F 43% 30.18 in 10.0 mi East 6.9 mph - N/A   Clear
1:35 PM 48.2 °F - 26.6 °F 43% 30.17 in 10.0 mi ENE 5.8 mph - N/A   Clear
1:55 PM 48.2 °F - 28.4 °F 46% 30.16 in 10.0 mi East 6.9 mph - N/A   Clear
2:15 PM 50.0 °F - 26.6 °F 40% 30.15 in 10.0 mi East 8.1 mph - N/A   Clear
2:35 PM 50.0 °F - 21.2 °F 32% 30.15 in 10.0 mi ESE 5.8 mph - N/A   Clear
2:55 PM 50.0 °F - 26.6 °F 40% 30.15 in 10.0 mi ESE 6.9 mph - N/A   Clear
3:15 PM 50.0 °F - 21.2 °F 32% 30.15 in 10.0 mi SE 8.1 mph - N/A   Clear
3:35 PM 51.8 °F - 24.8 °F 35% 30.14 in 10.0 mi SE 9.2 mph - N/A   Clear
3:55 PM 48.2 °F - 28.4 °F 46% 30.13 in 10.0 mi East 11.5 mph - N/A   Clear
4:15 PM 48.2 °F - 28.4 °F 46% 30.13 in 10.0 mi ESE 9.2 mph - N/A   Clear
4:35 PM 46.4 °F 42.9 °F 30.2 °F 53% 30.13 in 10.0 mi ESE 6.9 mph - N/A   Clear
4:55 PM 46.4 °F 42.9 °F 32.0 °F 57% 30.14 in 10.0 mi SE 6.9 mph - N/A   Clear
5:15 PM 46.4 °F 44.3 °F 33.8 °F 62% 30.13 in 10.0 mi ESE 4.6 mph - N/A   Clear
5:35 PM 44.6 °F 41.4 °F 33.8 °F 66% 30.14 in 10.0 mi ESE 5.8 mph - N/A   Clear
5:55 PM 42.8 °F 40.1 °F 35.6 °F 76% 30.13 in 10.0 mi ESE 4.6 mph - N/A   Clear
6:15 PM 42.8 °F 39.3 °F 33.8 °F 70% 30.12 in 10.0 mi ESE 5.8 mph - N/A   Clear
6:35 PM 44.6 °F 41.4 °F 33.8 °F 66% 30.14 in 10.0 mi SE 5.8 mph - N/A   Clear
6:55 PM 42.8 °F 38.6 °F 33.8 °F 70% 30.12 in 10.0 mi ESE 6.9 mph - N/A   Clear
7:15 PM 42.8 °F 36.6 °F 33.8 °F 70% 30.11 in 10.0 mi ESE 11.5 mph - N/A   Clear
7:35 PM 42.8 °F 36.6 °F 35.6 °F 76% 30.11 in 10.0 mi ESE 11.5 mph - N/A   Clear
7:55 PM 42.8 °F 36.6 °F 35.6 °F 76% 30.12 in 10.0 mi ESE 11.5 mph - N/A   Clear
8:15 PM 42.8 °F 36.6 °F 35.6 °F 76% 30.12 in 10.0 mi SE 11.5 mph - N/A   Clear
8:35 PM 42.8 °F 36.6 °F 35.6 °F 76% 30.12 in 10.0 mi SE 11.5 mph - N/A   Clear
8:55 PM 42.8 °F 37.0 °F 35.6 °F 76% 30.12 in 10.0 mi SE 10.4 mph - N/A   Clear
9:15 PM 41.0 °F 35.8 °F 35.6 °F 81% 30.12 in 10.0 mi SE 8.1 mph - N/A   Clear
9:35 PM 41.0 °F 35.2 °F 37.4 °F 87% 30.11 in 10.0 mi SE 9.2 mph - N/A   Clear
9:55 PM 41.0 °F 35.2 °F 37.4 °F 87% 30.11 in 10.0 mi SE 9.2 mph - N/A   Clear
10:15 PM 41.0 °F 35.2 °F 37.4 °F 87% 30.10 in 10.0 mi SE 9.2 mph - N/A   Clear
10:35 PM 41.0 °F 35.2 °F 37.4 °F 87% 30.10 in 10.0 mi SE 9.2 mph - N/A   Clear
10:55 PM 41.0 °F 35.2 °F 37.4 °F 87% 30.09 in 10.0 mi ESE 9.2 mph - N/A   Clear
11:15 PM 39.2 °F 33.0 °F 37.4 °F 93% 30.08 in 10.0 mi ESE 9.2 mph - N/A   Clear
11:35 PM 39.2 °F 33.0 °F 35.6 °F 87% 30.07 in 10.0 mi ESE 9.2 mph - N/A   Clear
11:55 PM 39.2 °F 33.6 °F 35.6 °F 87% 30.08 in 10.0 mi ESE 8.1 mph - N/A   Clear